Voltar ao catálogo

FENGYUN 1C DEB

AtivoSSO
NORAD 30170·DEBRIS·🇨🇳 China

Lançado May 10, 1999 de Taiyuan Satellite Launch Center

Loading…

Próximas Passagens (próximas 24 horas)

TLE

AtualizadoSource: Space-Track

Época: Sep 14, 2026, 10:22 UTC

1 30170U 99025UB  26257.43235229  .00000294  00000-0  22086-3 0  9994
2 30170  98.8777 241.0019 0077201 229.4734 284.1398 14.00629221  2705

Acompanhe FENGYUN 1C DEB em tempo real com AllMySat

Download on the App Store